Notices

What's New in latest Release from April 7th, 2021:

- Updated Glossary, including Speed of Maximum Gust, and Total Hourly Precipitation

- Updated national and regional climate services offices contacts and prices information

- Addition of station inventory lists for 1981-2010, 1971-2000, and 1961-1990 Normals.

If you haven't already, please take our survey and provide feedback about our website: https://eccc.sondage-survey.ca/f/LanguageSelection.aspx?s=442ca660-fcf1-47c0-95a9-59707d6fd709

Hourly Data Report for April 04, 2021

CORNER BROOK
NEWFOUNDLAND
Current Station Operator: ECCC - MSC

48°56'00.000" N
57°55'00.000" W
151.80 m
8401298
71973
WKB

Download Data

Hourly Data (April 2021)
Hourly Data Report for April 4, 2021
TIME
LST
Temp Definition
°C
Dew Point Definition
°C
Rel Hum Definition
%
Precip. Amount Definition
mm

Wind Dir Definition
10's deg

Wind Spd Definition
km/h
Visibility Definition
km
Stn Press Definition
kPa
Hmdx Definition


Wind Chill Definition


Weather Definition


00:30 5.9 2.3 77 0.0 11 13   100.08     LegendNANA
01:30 5.8 2.5 79 0.0 8 13   100.04     LegendNANA
02:30 5.4 2.4 81 0.0 10 10   100.00     LegendNANA
03:30 6.0 3.1 82 0.0 10 10   99.96     LegendNANA
04:30 5.7 2.8 82 0.0 11 11   99.95     LegendNANA
05:30 5.5 2.9 83 0.0 9 8   99.95     LegendNANA
06:30 5.2 2.6 83 0.0 9 12   100.00     LegendNANA
07:30 5.8 3.0 82 0.0 8 14   100.03     LegendNANA
08:30 7.4 3.5 76 0.0 8 9   100.04     LegendNANA
09:30 7.2 3.7 79 0.0 8 13   100.02     LegendNANA
10:30 8.4 3.1 69 0.0 9 19   99.96     LegendNANA
11:30 9.9 3.3 63 0.0 10 18   99.92     LegendNANA
12:30 12.5 4.4 58 1.2 11 13   99.85     LegendNANA
13:30 12.0 5.1 63 0.0 8 15   99.83     LegendNANA
14:30 12.2 5.7 64 0.0 8 19   99.76     LegendNANA
15:30 8.3 4.2 76 1.7 8 24   99.75     LegendNANA
16:30 7.0 3.6 79 0.0 8 21   99.77     LegendNANA
17:30 5.8 3.2 83 0.0 7 22   99.75     LegendNANA
18:30 4.6 2.5 86 0.0 7 21   99.78     LegendNANA
19:30 4.5 2.8 89 0.0 6 16   99.79     LegendNANA
20:30 4.2 2.7 90 0.0 26 5   99.81     LegendNANA
21:30 4.2 2.9 91 0.0 31 4   99.76     LegendNANA
22:30 4.7 3.4 91 0.0 7 16   99.69     LegendNANA
23:30 4.0 2.7 91 0.0 8 16   99.69     LegendNANA

Notes on Data Quality.

Legend

  • E = Estimated
  • M = Missing
  • NA = Not Available*
  • [empty] = Indicates an unobserved value
Date modified: